Location: Boissi�res
(45.2500°N, 2.3667°E)
Time: 07:13:32
(UTC+00:00)

N. Korean satellite - Visible Passes

Search period start: 23 September 2021 00:00
Search period end: 03 October 2021 00:00
Orbit: 448 x 498 km, 97.3° (Epoch: 22 September)

Date Brightness Start Highest point End Pass type
(mag) Time Alt. Az. Time Alt. Az. Time Alt. Az.
23 Sep 9.2 04:29:02 10° NE 04:31:55 23° E 04:34:50 10° SSE visible
24 Sep 10.0 04:02:44 10° ENE 04:03:57 11° E 04:05:10 10° ESE visible
25 Sep 6.9 05:06:10 10° NNE 05:09:43 71° ESE 05:13:17 10° S visible
26 Sep 8.7 04:38:39 10° NNE 04:41:52 31° E 04:45:05 10° SSE visible
27 Sep 9.8 04:11:45 10° NE 04:13:54 15° E 04:16:03 10° SE visible
28 Sep 6.5 05:15:58 10° N 05:19:33 85° W 05:23:09 10° SSW visible
29 Sep 8.0 04:48:17 10° NNE 04:51:43 41° E 04:55:09 10° S visible
30 Sep 9.5 04:21:04 10° NE 04:23:45 20° E 04:26:27 10° SE visible
02 Oct 7.4 04:57:54 10° NNE 05:01:28 55° E 05:05:02 10° S visible
